CW6780 Weather Reports


Display with metric or nautical units.
time (UTC)temp
F
wind
direction
speed
MPH
gust
MPH
rain 1hr
in
rain 24hr
in
rain mn
in
humidity
%
barometer
mb
20191022025033 53 178 3.0 10.0 0.04 0.00 0.46 98 1014.4
20191022022033 52 178 3.0 9.0 0.04 0.00 0.43 98 1014.6
20191022020033 51 226 2.0 8.0 0.06 0.00 0.43 98 1014.7
20191022013033 51 170 2.0 8.0 0.06 0.00 0.40 98 1014.6
20191022004033 50 182 2.0 6.0 0.05 0.00 0.35 98 1015.2
20191022003033 51 176 3.0 8.0 0.05 0.00 0.34 98 1015.2
20191022002033 51 185 3.0 9.0 0.04 0.00 0.32 98 1015.2
20191022001033 51 182 2.0 7.0 0.05 0.00 0.32 98 1015.2
20191021235033 52 187 2.0 5.0 0.05 0.00 0.31 98 1015.2
20191021234033 52 187 1.0 4.0 0.06 0.00 0.30 98 1015.2
20191021233033 52 187 2.0 7.0 0.06 0.00 0.29 98 1015.2
20191021222033 52 208 1.0 9.0 0.06 0.00 0.22 98 1015.3
20191021221033 52 164 1.0 9.0 0.06 0.00 0.20 97 1015.2
20191021215033 52 203 0.0 4.0 0.07 0.00 0.17 97 1015.7
20191021213033 52 136 1.0 4.0 0.06 0.00 0.16 97 1015.7
20191021212033 52 82 0.0 3.0 0.06 0.00 0.15 97 1015.7
20191021210033 52 114 1.0 4.0 0.06 0.00 0.13 97 1016.1
20191021204033 52 149 0.0 3.0 0.03 0.00 0.09 97 1015.8
20191021202033 52 10 0.0 3.0 0.03 0.00 0.09 97 1015.9
20191021201032 51 184 0.0 3.0 0.02 0.00 0.08 97 1016.1
20191021200033 51 183 0.0 2.0 0.02 0.00 0.07 97 1016.3
20191021195033 51 183 1.0 5.0 0.02 0.00 0.07 97 1016.4
20191021193033 52 166 1.0 5.0 0.01 0.00 0.06 97 1016.4
20191021192033 51 129 1.0 4.0 0.01 0.00 0.06 97 1016.8
20191021185033 52 100 0.0 3.0 0.01 0.00 0.05 97 1017.2
20191021184033 51 77 1.0 7.0 0.01 0.00 0.05 97 1017.3
20191021183033 51 103 1.0 5.0 0.01 0.00 0.05 97 1017.4
20191021182033 51 108 0.0 5.0 0.02 0.00 0.05 97 1017.7
20191021180033 51 99 1.0 7.0 0.01 0.00 0.05 97 1017.9
20191021175033 51 162 0.0 5.0 0.01 0.00 0.04 97 1017.9
20191021173033 51 160 1.0 7.0 0.02 0.00 0.04 97 1017.9
20191021172033 51 192 0.0 3.0 0.01 0.00 0.03 96 1018.1
20191021171033 50 218 0.0 5.0 0.01 0.00 0.03 96 1018.1
20191021165033 50 108 0.0 2.0 0.02 0.00 0.03 96 1018.3
20191021162033 50 108 0.0 3.0 0.01 0.00 0.02 96 1018.3
20191021161033 50 162 0.0 3.0 0.01 0.00 0.02 96 1018.3
20191021160033 50 165 0.0 5.0 0.00 0.00 0.02 96 1018.2
20191021155033 50 166 1.0 6.0 0.00 0.00 0.02 96 1018.2
20191021153033 50 116 0.0 4.0 0.00 0.00 0.02 96 1017.8
20191021150033 50 101 0.0 3.0 0.01 0.00 0.02 95 1017.4
20191021144033 50 162 0.0 3.0 0.01 0.00 0.02 95 1017.4
20191021143033 50 163 0.0 3.0 0.01 0.00 0.02 94 1017.3
20191021141033 50 164 0.0 1.0 0.00 0.00 0.01 94 1017.4
20191021140033 50 164 0.0 2.0 0.00 0.00 0.01 94 1017.4
20191021134033 50 163 0.0 3.0 0.00 0.00 0.01 94 1017.4
20191021133033 50 175 2.0 7.0 0.00 0.00 0.01 93 1017.3
20191021131033 50 151 1.0 10.0 0.00 0.00 0.01 92 1017.3
20191021130033 50 208 1.0 6.0 0.00 0.00 0.01 92 1017.4
20191021125033 50 176 1.0 8.0 0.00 0.00 0.01 92 1017.3
20191021123033 51 162 1.0 4.0 0.00 0.00 0.01 91 1017.1
20191021122033 51 157 2.0 6.0 0.00 0.00 0.01 90 1017.3
20191021120033 51 166 3.0 11.0 0.00 0.00 0.01 89 1016.9
20191021112033 52 205 5.0 11.0 0.00 0.00 0.01 88 1016.8
20191021110033 52 208 3.0 7.0 0.00 0.00 0.01 86 1016.8
20191021104036 53 206 5.0 9.0 0.00 0.00 0.01 83 1016.8
20191021103033 53 221 3.0 9.0 0.00 0.00 0.01 84 1016.5
20191021101033 53 263 5.0 12.0 0.00 0.00 0.01 84 1016.3
20191021094033 53 273 5.0 11.0 0.00 0.00 0.01 83 1016.2
20191021093033 52 267 6.0 12.0 0.00 0.00 0.01 84 1016.2
20191021091033 52 246 3.0 9.0 0.01 0.00 0.01 84 1015.9
20191021084033 52 289 4.0 9.0 0.01 0.00 0.01 83 1015.8
20191021082033 52 217 4.0 13.0 0.01 0.00 0.01 83 1016.2
20191021081033 52 266 6.0 14.0 0.00 0.00 0.00 83 1016.0
20191021080033 52 257 7.0 17.0 0.00 0.00 0.00 83 1015.8
20191021074033 51 262 3.0 10.0 0.00 0.00 0.00 86 1015.7
20191021073033 51 226 3.0 6.0 0.00 0.00 0.00 87 1015.5
20191021072033 51 270 4.0 8.0 0.00 0.00 0.00 87 1015.4
20191021071033 51 273 3.0 7.0 0.00 0.00 0.00 88 1015.4
20191021070033 51 208 2.0 7.0 0.00 0.00 0.00 88 1015.4
20191021065033 51 203 2.0 6.0 0.00 0.00 0.05 88 1015.3
20191021064033 51 216 3.0 7.0 0.00 0.00 0.05 88 1015.2
20191021062033 51 258 3.0 7.0 0.00 0.00 0.05 88 1014.7
20191021061033 51 243 2.0 5.0 0.00 0.00 0.05 87 1014.7
20191021060034 51 219 3.0 8.0 0.00 0.00 0.05 87 1014.8
20191021055033 51 215 4.0 9.0 0.00 0.00 0.05 87 1014.7
20191021054033 50 227 3.0 8.0 0.00 0.00 0.05 86 1014.2
20191021053033 50 278 3.0 7.0 0.00 0.00 0.05 86 1014.2
20191021052033 50 268 3.0 7.0 0.00 0.00 0.05 85 1014.1
20191021050033 50 266 4.0 8.0 0.00 0.00 0.05 84 1013.8